Retour au catalogue

OPS 4682 DEB

ActifPO
NORAD 38446·DEBRIS·🇺🇸 United States

Lancé Apr 3, 1965 depuis Vandenberg Space Force Base

Loading…

Prochains Passages (prochaines 24 heures)

TLE

FraisSource: Space-Track

Époque: Sep 14, 2026, 08:02 UTC

1 38446U 65027FB  26257.33537312 -.00000395  00000-0 -13107-2 0  9997
2 38446  90.2744  30.1128 0018514 172.2891 187.8520 13.01376335598877

Suivez OPS 4682 DEB en temps réel avec AllMySat

Download on the App Store